PTI737 EGPH-KHOU

Flight info

Callsign PTI737
Flight time N/A
Altitude 34000
Route GRICE DCT ORSUM DCT ORTAV/M080F340 DCT 6015N DCT 6126N DCT 6135N DCT 6145N DCT SAVRY/N0473F340 N922A LAKES DCT 5670N DCT YKQ DCT YTS DCT BRRTT DCT ITAME DCT DAAVE DCT MIEDZ DCT KF18I DCT SWEUP WAPPL7
Aircraft B737/M-SDE2E3FGHIRWXY/LB1

Departure

Time 2026-05-06 11:57
Airport Edinburgh Airport (EGPH)

Arrival

Time N/A
Airport William P. Hobby Airport (KHOU)
Time Latitude Longitude Altitude Speed Heading
2026-05-06 11:37 55.94640 -3.35280 113 ft 0 kts 298°
2026-05-06 11:46 55.94639 -3.35276 115 ft 2 kts 298°
2026-05-06 11:47 55.94627 -3.35236 111 ft 3 kts 299°
2026-05-06 11:47 55.94617 -3.35203 111 ft 4 kts 292°
2026-05-06 11:47 55.94615 -3.35183 111 ft 4 kts 239°
2026-05-06 11:47 55.94629 -3.35142 112 ft 4 kts 239°
2026-05-06 11:48 55.94643 -3.35101 112 ft 4 kts 239°
2026-05-06 11:48 55.94657 -3.35060 111 ft 4 kts 239°
2026-05-06 11:48 55.94671 -3.35018 111 ft 4 kts 239°
2026-05-06 11:48 55.94685 -3.34977 112 ft 4 kts 238°
2026-05-06 11:49 55.94698 -3.34938 111 ft 2 kts 237°
2026-05-06 11:49 55.94699 -3.34936 111 ft 0 kts 237°
2026-05-06 11:50 55.94682 -3.34983 111 ft 15 kts 239°
2026-05-06 11:51 55.94685 -3.35119 113 ft 11 kts 321°
2026-05-06 11:51 55.94735 -3.35214 115 ft 10 kts 300°
2026-05-06 11:51 55.94787 -3.35383 113 ft 23 kts 299°
2026-05-06 11:51 55.94864 -3.35634 115 ft 23 kts 298°
2026-05-06 11:52 55.94943 -3.35871 113 ft 22 kts 311°
2026-05-06 11:52 55.95025 -3.35840 114 ft 12 kts
2026-05-06 11:52 55.95092 -3.35999 114 ft 22 kts 290°
2026-05-06 11:52 55.95136 -3.36262 115 ft 22 kts 264°
2026-05-06 11:53 55.95062 -3.36494 114 ft 21 kts 238°
2026-05-06 11:53 55.94977 -3.36741 115 ft 23 kts 238°
2026-05-06 11:53 55.94896 -3.36986 113 ft 23 kts 240°
2026-05-06 11:53 55.94798 -3.37276 114 ft 28 kts 239°
2026-05-06 11:54 55.94699 -3.37569 113 ft 27 kts 239°
2026-05-06 11:54 55.94607 -3.37847 113 ft 25 kts 239°
2026-05-06 11:54 55.94519 -3.38107 113 ft 24 kts 238°
2026-05-06 11:54 55.94434 -3.38348 115 ft 23 kts 238°
2026-05-06 11:55 55.94348 -3.38601 114 ft 26 kts 239°
2026-05-06 11:55 55.94294 -3.38870 111 ft 22 kts 307°
2026-05-06 11:55 55.94410 -3.38972 113 ft 10 kts 28°
2026-05-06 11:55 55.94419 -3.38956 110 ft 0 kts 54°
2026-05-06 11:57 55.94469 -3.38814 112 ft 46 kts 59°
2026-05-06 11:57 55.94779 -3.37901 112 ft 123 kts 58°
2026-05-06 11:57 55.95338 -3.36269 245 ft 173 kts 57°
2026-05-06 11:57 55.95935 -3.34620 1484 ft 152 kts 56°
2026-05-06 11:58 55.96718 -3.33154 2037 ft 179 kts 44°
2026-05-06 11:58 55.97713 -3.31551 2374 ft 206 kts 44°
2026-05-06 11:58 55.98829 -3.29751 2706 ft 229 kts 43°
2026-05-06 11:58 56.00148 -3.27992 3333 ft 239 kts 28°
2026-05-06 11:59 56.01731 -3.27039 4042 ft 245 kts
2026-05-06 11:59 56.03495 -3.27092 4593 ft 261 kts 347°
2026-05-06 11:59 56.05149 -3.28313 5447 ft 262 kts 326°
2026-05-06 11:59 56.06447 -3.30535 5846 ft 257 kts 302°
2026-05-06 12:00 56.07317 -3.33317 6507 ft 259 kts 301°
2026-05-06 12:00 56.08296 -3.36076 7222 ft 265 kts 303°
2026-05-06 12:00 56.09309 -3.38868 8006 ft 269 kts 303°
2026-05-06 12:00 56.10329 -3.41702 8787 ft 273 kts 302°
2026-05-06 12:01 56.11360 -3.44597 9580 ft 277 kts 302°
2026-05-06 12:01 56.12394 -3.47523 10381 ft 280 kts 302°
2026-05-06 12:01 56.13464 -3.50572 10716 ft 299 kts 301°
2026-05-06 12:01 56.14586 -3.53781 11315 ft 307 kts 301°
2026-05-06 12:02 56.15726 -3.57047 12088 ft 309 kts 301°
2026-05-06 12:02 56.16865 -3.60321 12962 ft 309 kts 301°
2026-05-06 12:02 56.18004 -3.63600 13799 ft 311 kts 301°
2026-05-06 12:02 56.19152 -3.66907 14493 ft 313 kts 301°
2026-05-06 12:03 56.20000 -3.69077 14936 ft 316 kts 308°
2026-05-06 12:03 56.21512 -3.71990 15625 ft 320 kts 312°
2026-05-06 12:03 56.23344 -3.75308 16402 ft 324 kts 313°
2026-05-06 12:03 56.24946 -3.78188 17099 ft 327 kts 313°
2026-05-06 12:04 56.26558 -3.81092 17845 ft 329 kts 312°
2026-05-06 12:04 56.28172 -3.84015 18548 ft 331 kts 312°
2026-05-06 12:04 56.29799 -3.86975 19132 ft 334 kts 312°
2026-05-06 12:04 56.31440 -3.89971 19731 ft 337 kts 312°
2026-05-06 12:05 56.33088 -3.92990 20326 ft 340 kts 312°
2026-05-06 12:05 56.34752 -3.96046 20928 ft 343 kts 311°
2026-05-06 12:05 56.36427 -3.99129 21526 ft 346 kts 311°
2026-05-06 12:05 56.38116 -4.02242 22116 ft 349 kts 311°
2026-05-06 12:06 56.39818 -4.05386 22690 ft 352 kts 312°
2026-05-06 12:06 56.41513 -4.08519 23261 ft 355 kts 312°
2026-05-06 12:06 56.43247 -4.11731 23794 ft 358 kts 312°
2026-05-06 12:06 56.44994 -4.14970 24265 ft 361 kts 312°
2026-05-06 12:07 56.46749 -4.18229 24752 ft 363 kts 312°
2026-05-06 12:07 56.48512 -4.21509 25211 ft 365 kts 312°
2026-05-06 12:07 56.50286 -4.24812 25714 ft 367 kts 312°
2026-05-06 12:07 56.52070 -4.28138 26256 ft 367 kts 312°
2026-05-06 12:08 56.53847 -4.31457 26760 ft 368 kts 312°
2026-05-06 12:08 56.55635 -4.34802 27176 ft 371 kts 313°
2026-05-06 12:08 56.57438 -4.38180 27593 ft 374 kts 313°
2026-05-06 12:08 56.59253 -4.41585 28021 ft 376 kts 313°
2026-05-06 12:09 56.61076 -4.45009 28444 ft 378 kts 313°
2026-05-06 12:09 56.62911 -4.48461 28853 ft 380 kts 313°
2026-05-06 12:09 56.64752 -4.51930 29240 ft 383 kts 313°
2026-05-06 12:09 56.66604 -4.55427 29611 ft 385 kts 313°
2026-05-06 12:10 56.68465 -4.58943 29978 ft 387 kts 313°
2026-05-06 12:10 56.70337 -4.62486 30298 ft 389 kts 313°
2026-05-06 12:10 56.72217 -4.66051 30590 ft 391 kts 313°
2026-05-06 12:10 56.74101 -4.69628 30915 ft 391 kts 313°
2026-05-06 12:11 56.75984 -4.73209 31262 ft 392 kts 312°
2026-05-06 12:11 56.77871 -4.76804 31542 ft 393 kts 312°
2026-05-06 12:11 56.79763 -4.80413 31782 ft 395 kts 312°
2026-05-06 12:11 56.81666 -4.84051 31997 ft 397 kts 312°
2026-05-06 12:12 56.83577 -4.87708 32225 ft 399 kts 312°
2026-05-06 12:12 56.85496 -4.91386 32461 ft 401 kts 312°
2026-05-06 12:12 56.87421 -4.95081 32692 ft 402 kts 312°
2026-05-06 12:12 56.89354 -4.98799 32909 ft 404 kts 312°
2026-05-06 12:13 56.91292 -5.02531 33113 ft 405 kts 311°
2026-05-06 12:13 56.93237 -5.06284 33308 ft 407 kts 311°
2026-05-06 12:13 56.95187 -5.10051 33507 ft 408 kts 311°
2026-05-06 12:13 56.97143 -5.13837 33695 ft 410 kts 311°
2026-05-06 12:14 56.99106 -5.17644 33880 ft 411 kts 311°
2026-05-06 12:14 57.01074 -5.21463 34064 ft 413 kts 311°
2026-05-06 12:14 57.05063 -5.29223 34056 ft 422 kts 312°
2026-05-06 12:15 57.09287 -5.36816 34056 ft 426 kts 315°
2026-05-06 12:15 57.13616 -5.44256 34042 ft 426 kts 315°
2026-05-06 12:16 57.17931 -5.51710 34047 ft 425 kts 315°
2026-05-06 12:16 57.22224 -5.59207 34046 ft 425 kts 314°
2026-05-06 12:17 57.26502 -5.66731 34073 ft 424 kts 314°
2026-05-06 12:17 57.30769 -5.74267 34062 ft 424 kts 314°
2026-05-06 12:18 57.35026 -5.81811 34053 ft 423 kts 314°
2026-05-06 12:18 57.39271 -5.89360 34050 ft 423 kts 314°
2026-05-06 12:19 57.43508 -5.96919 34049 ft 423 kts 314°
2026-05-06 12:19 57.47710 -6.04441 34053 ft 422 kts 314°
2026-05-06 12:20 57.51928 -6.12015 34072 ft 421 kts 314°
2026-05-06 12:20 57.56137 -6.19601 34064 ft 421 kts 314°
2026-05-06 12:21 57.60333 -6.27189 34053 ft 420 kts 314°
2026-05-06 12:21 57.64521 -6.34788 34054 ft 420 kts 314°
2026-05-06 12:22 57.68703 -6.42402 34057 ft 420 kts 314°
2026-05-06 12:22 57.72879 -6.50031 34055 ft 419 kts 313°
2026-05-06 12:23 57.77047 -6.57671 34086 ft 420 kts 313°
2026-05-06 12:23 57.81215 -6.65337 34062 ft 419 kts 313°
2026-05-06 12:24 57.85374 -6.73013 34052 ft 419 kts 313°
2026-05-06 12:24 57.89523 -6.80697 34051 ft 419 kts 313°
2026-05-06 12:25 57.93666 -6.88396 34053 ft 419 kts 313°
2026-05-06 12:25 57.97105 -6.94807 34048 ft 419 kts 313°
2026-05-06 12:26 58.01245 -7.02548 34089 ft 419 kts 313°
2026-05-06 12:26 58.05382 -7.10313 34054 ft 419 kts 313°
2026-05-06 12:27 58.09510 -7.18084 34042 ft 418 kts 313°
2026-05-06 12:27 58.13621 -7.25853 34046 ft 418 kts 312°
2026-05-06 12:28 58.17725 -7.33634 34043 ft 417 kts 312°
2026-05-06 12:28 58.21822 -7.41428 34043 ft 417 kts 312°
2026-05-06 12:29 58.25907 -7.49228 34087 ft 416 kts 312°
2026-05-06 12:29 58.29996 -7.57063 34052 ft 418 kts 312°
2026-05-06 12:30 58.34083 -7.64921 34041 ft 418 kts 312°
2026-05-06 12:30 58.38165 -7.72796 34041 ft 418 kts 312°
2026-05-06 12:31 58.42245 -7.80696 34037 ft 418 kts 312°
2026-05-06 12:31 58.46321 -7.88615 34039 ft 418 kts 312°
2026-05-06 12:32 58.50393 -7.96555 34037 ft 418 kts 312°
2026-05-06 12:32 58.54465 -8.04521 34033 ft 418 kts 312°
2026-05-06 12:33 58.58530 -8.12503 34032 ft 419 kts 311°
2026-05-06 12:33 58.62586 -8.20495 34039 ft 417 kts 312°
2026-05-06 12:34 58.66625 -8.28482 34023 ft 416 kts 312°
2026-05-06 12:34 58.70641 -8.36452 34023 ft 414 kts 311°
2026-05-06 12:35 58.74638 -8.44412 34028 ft 413 kts 311°
2026-05-06 12:35 58.78625 -8.52380 34028 ft 413 kts 311°
2026-05-06 12:36 58.82574 -8.60301 34020 ft 412 kts 311°
2026-05-06 12:36 58.86543 -8.68289 34019 ft 412 kts 311°
2026-05-06 12:37 58.90507 -8.76296 34008 ft 412 kts 311°
2026-05-06 12:37 58.94464 -8.84318 34015 ft 412 kts 311°
2026-05-06 12:38 58.98415 -8.92354 34010 ft 412 kts 311°
2026-05-06 12:38 59.02355 -9.00398 34007 ft 412 kts 311°
2026-05-06 12:39 59.06298 -9.08476 34001 ft 412 kts 311°
2026-05-06 12:39 59.10238 -9.16577 34005 ft 412 kts 311°
2026-05-06 12:40 59.14176 -9.24704 33994 ft 413 kts 311°
2026-05-06 12:40 59.18110 -9.32851 33994 ft 413 kts 310°
2026-05-06 12:41 59.22018 -9.40972 33992 ft 413 kts 310°
2026-05-06 12:41 59.25946 -9.49165 34041 ft 413 kts 310°
2026-05-06 12:42 59.29888 -9.57419 33994 ft 416 kts 310°
2026-05-06 12:42 59.33842 -9.65727 33982 ft 418 kts 310°
2026-05-06 12:43 59.37802 -9.74077 33981 ft 418 kts 310°
2026-05-06 12:43 59.41749 -9.82432 33983 ft 417 kts 310°
2026-05-06 12:44 59.45682 -9.90784 33973 ft 416 kts 310°
2026-05-06 12:44 59.49102 -9.99820 33984 ft 411 kts 297°
2026-05-06 12:45 59.51280 -10.10181 33966 ft 411 kts 284°
2026-05-06 12:46 59.53219 -10.26613 33962 ft 411 kts 283°
2026-05-06 12:46 59.54482 -10.37589 33964 ft 411 kts 283°
2026-05-06 12:47 59.55753 -10.48560 33946 ft 410 kts 283°
2026-05-06 12:47 59.57021 -10.59502 33947 ft 409 kts 283°
2026-05-06 12:48 59.58280 -10.70423 33952 ft 408 kts 283°
2026-05-06 12:48 59.59528 -10.81331 33940 ft 407 kts 283°
2026-05-06 12:49 59.60766 -10.92244 33943 ft 407 kts 283°
2026-05-06 12:49 59.61994 -11.03153 33935 ft 407 kts 283°
2026-05-06 12:50 59.63212 -11.14071 33931 ft 407 kts 283°
2026-05-06 12:50 59.64420 -11.24982 33922 ft 406 kts 283°
2026-05-06 12:51 59.65615 -11.35868 33920 ft 405 kts 283°
2026-05-06 12:51 59.66798 -11.46740 33921 ft 404 kts 283°
2026-05-06 12:52 59.67976 -11.57649 33929 ft 406 kts 282°
2026-05-06 12:52 59.69143 -11.68543 33921 ft 408 kts 282°
2026-05-06 12:53 59.70312 -11.79557 33916 ft 409 kts 282°
2026-05-06 12:53 59.71475 -11.90609 33898 ft 410 kts 282°
2026-05-06 12:54 59.72628 -12.01662 33904 ft 410 kts 282°
2026-05-06 12:54 59.73772 -12.12725 33912 ft 410 kts 282°
2026-05-06 12:55 59.74907 -12.23796 33902 ft 410 kts 282°
2026-05-06 12:55 59.76033 -12.34873 33905 ft 410 kts 282°
2026-05-06 12:56 59.77149 -12.45963 33896 ft 410 kts 282°
2026-05-06 12:56 59.78258 -12.57071 33879 ft 410 kts 282°
2026-05-06 12:57 59.79355 -12.68167 33895 ft 409 kts 281°
2026-05-06 12:57 59.80442 -12.79260 33892 ft 409 kts 281°
2026-05-06 12:58 59.81519 -12.90359 33886 ft 409 kts 281°
2026-05-06 12:58 59.82587 -13.01466 33892 ft 411 kts 281°
2026-05-06 12:59 59.83647 -13.12590 33879 ft 414 kts 281°
2026-05-06 12:59 59.84710 -13.23855 33885 ft 415 kts 281°
2026-05-06 13:00 59.85767 -13.35174 33882 ft 417 kts 281°
2026-05-06 13:00 59.86817 -13.46519 33878 ft 417 kts 281°
2026-05-06 13:01 59.87855 -13.57857 33884 ft 416 kts 281°
2026-05-06 13:01 59.88884 -13.69199 33879 ft 416 kts 281°
2026-05-06 13:02 59.89902 -13.80541 33878 ft 416 kts 280°
2026-05-06 13:02 59.90909 -13.91876 33883 ft 415 kts 280°
2026-05-06 13:03 59.91906 -14.03214 33882 ft 415 kts 280°
2026-05-06 13:03 59.92892 -14.14549 33867 ft 415 kts 280°
2026-05-06 13:04 59.93869 -14.25891 33869 ft 415 kts 280°
2026-05-06 13:04 59.94835 -14.37221 33868 ft 415 kts 280°
2026-05-06 13:05 59.95790 -14.48545 33904 ft 415 kts 280°
2026-05-06 13:05 59.96740 -14.59940 33876 ft 417 kts 279°
2026-05-06 13:06 59.97685 -14.71394 33868 ft 419 kts 279°
2026-05-06 13:06 59.98621 -14.82863 33849 ft 418 kts 279°
2026-05-06 13:07 59.99547 -14.94317 33854 ft 417 kts 279°
2026-05-06 13:07 60.00667 -15.05685 33855 ft 417 kts 284°
2026-05-06 13:08 60.02190 -15.16858 33839 ft 417 kts 285°
2026-05-06 13:08 60.03741 -15.28018 33846 ft 416 kts 285°
2026-05-06 13:09 60.05256 -15.39196 33834 ft 416 kts 284°
2026-05-06 13:09 60.06742 -15.50378 33837 ft 415 kts 283°
2026-05-06 13:10 60.08208 -15.61541 33821 ft 414 kts 283°
2026-05-06 13:10 60.09657 -15.72677 33817 ft 412 kts 283°
2026-05-06 13:11 60.11096 -15.83812 33824 ft 414 kts 283°
2026-05-06 13:11 60.12525 -15.94949 33811 ft 416 kts 283°
2026-05-06 13:12 60.13962 -16.06233 33824 ft 418 kts 283°
2026-05-06 13:12 60.15394 -16.17563 33817 ft 420 kts 283°
2026-05-06 13:13 60.16822 -16.28943 33804 ft 421 kts 283°
2026-05-06 13:13 60.18245 -16.40372 33804 ft 422 kts 283°
2026-05-06 13:14 60.19431 -16.49972 33796 ft 423 kts 282°
2026-05-06 13:14 60.20831 -16.61379 33800 ft 423 kts 282°
2026-05-06 13:15 60.22231 -16.72874 33796 ft 423 kts 282°
2026-05-06 13:15 60.23629 -16.84456 33779 ft 423 kts 282°
2026-05-06 13:16 60.24999 -16.95887 33761 ft 423 kts 282°
2026-05-06 13:16 60.26370 -17.07431 33812 ft 424 kts 282°
2026-05-06 13:17 60.27738 -17.19032 33793 ft 426 kts 282°
2026-05-06 13:17 60.29099 -17.30676 33782 ft 428 kts 282°
2026-05-06 13:18 60.30451 -17.42341 33775 ft 427 kts 282°
2026-05-06 13:18 60.31794 -17.54028 33791 ft 427 kts 282°
2026-05-06 13:19 60.33126 -17.65714 33782 ft 428 kts 282°
2026-05-06 13:19 60.34448 -17.77409 33764 ft 427 kts 282°
2026-05-06 13:20 60.35758 -17.89097 33770 ft 426 kts 282°
2026-05-06 13:20 60.37053 -18.00762 33796 ft 425 kts 282°
2026-05-06 13:21 60.38339 -18.12437 33778 ft 426 kts 282°
2026-05-06 13:21 60.39615 -18.24128 33777 ft 426 kts 281°
2026-05-06 13:22 60.40879 -18.35807 33778 ft 425 kts 281°
2026-05-06 13:22 60.42132 -18.47500 33808 ft 425 kts 281°
2026-05-06 13:23 60.43375 -18.59200 33793 ft 426 kts 281°
2026-05-06 13:23 60.44611 -18.70931 33791 ft 426 kts 281°
2026-05-06 13:24 60.45838 -18.82690 33794 ft 427 kts 281°
2026-05-06 13:24 60.47056 -18.94469 33787 ft 427 kts 281°
2026-05-06 13:25 60.48265 -19.06267 33781 ft 428 kts 281°
2026-05-06 13:25 60.49464 -19.18084 33782 ft 428 kts 281°
2026-05-06 13:26 60.50652 -19.29904 33768 ft 427 kts 281°
2026-05-06 13:26 60.51829 -19.41732 33801 ft 428 kts 281°
2026-05-06 13:27 60.53001 -19.53617 33813 ft 430 kts 281°
2026-05-06 13:27 60.54166 -19.65548 33811 ft 431 kts 281°
2026-05-06 13:28 60.55314 -19.77422 33782 ft 431 kts 281°
2026-05-06 13:28 60.56458 -19.89375 33808 ft 431 kts 281°
2026-05-06 13:29 60.57590 -20.01316 33800 ft 429 kts 281°
2026-05-06 13:29 60.58707 -20.13224 33805 ft 428 kts 281°
2026-05-06 13:30 60.59813 -20.25134 33810 ft 428 kts 281°
2026-05-06 13:30 60.60908 -20.37047 33812 ft 428 kts 280°
2026-05-06 13:31 60.61990 -20.48945 33839 ft 427 kts 280°
2026-05-06 13:31 60.63060 -20.60838 33825 ft 427 kts 280°
2026-05-06 13:32 60.64120 -20.72736 33832 ft 427 kts 280°
2026-05-06 13:32 60.65171 -20.84669 33818 ft 427 kts 280°
2026-05-06 13:33 60.66200 -20.96478 33853 ft 418 kts 281°
2026-05-06 13:33 60.67208 -21.08162 33881 ft 419 kts 280°
2026-05-06 13:34 60.68217 -21.19990 33855 ft 427 kts 280°
2026-05-06 13:34 60.69223 -21.31905 33886 ft 426 kts 280°
2026-05-06 13:35 60.70205 -21.43683 33867 ft 419 kts 280°
2026-05-06 13:35 60.71175 -21.55440 33895 ft 423 kts 280°
2026-05-06 13:36 60.72148 -21.67356 33907 ft 427 kts 280°
2026-05-06 13:36 60.73103 -21.79205 33899 ft 423 kts 280°
2026-05-06 13:37 60.74056 -21.91165 33940 ft 426 kts 281°
2026-05-06 13:37 60.74999 -22.03129 33960 ft 430 kts 281°
2026-05-06 13:38 60.75935 -22.15165 33954 ft 425 kts 281°
2026-05-06 13:38 60.76849 -22.27057 33935 ft 423 kts 280°
2026-05-06 13:39 60.77759 -22.39020 33972 ft 428 kts 280°
2026-05-06 13:39 60.78665 -22.51093 33959 ft 429 kts 280°
2026-05-06 13:40 60.79554 -22.63095 33947 ft 425 kts 280°
2026-05-06 13:40 60.80430 -22.75072 33965 ft 428 kts 280°
2026-05-06 13:41 60.81305 -22.87179 33982 ft 431 kts 280°
2026-05-06 13:41 60.82166 -22.99262 34004 ft 427 kts 280°
2026-05-06 13:42 60.83013 -23.11299 33991 ft 428 kts 279°
2026-05-06 13:42 60.83859 -23.23467 33992 ft 433 kts 279°
2026-05-06 13:43 60.84696 -23.35702 33989 ft 431 kts 280°
2026-05-06 13:43 60.85517 -23.47863 34020 ft 430 kts 279°
2026-05-06 13:44 60.86327 -23.60029 34041 ft 430 kts 279°
2026-05-06 13:44 60.87127 -23.72204 34047 ft 430 kts 279°
2026-05-06 13:45 60.87915 -23.84385 34042 ft 431 kts 279°
2026-05-06 13:45 60.89084 -24.02760 34024 ft 434 kts 279°
2026-05-06 13:46 60.89848 -24.15022 34051 ft 433 kts 279°
2026-05-06 13:46 60.90601 -24.27279 34051 ft 433 kts 279°
2026-05-06 13:47 60.91345 -24.39565 34100 ft 433 kts 279°
2026-05-06 13:47 60.92077 -24.51857 34084 ft 434 kts 279°
2026-05-06 13:48 60.92800 -24.64186 34083 ft 435 kts 279°
2026-05-06 13:48 60.93514 -24.76558 34091 ft 436 kts 279°
2026-05-06 13:49 60.94216 -24.88929 34076 ft 435 kts 278°
2026-05-06 13:49 60.94905 -25.01284 34116 ft 435 kts 278°
2026-05-06 13:50 60.95585 -25.13669 34115 ft 436 kts 278°
2026-05-06 13:50 60.96253 -25.26060 34112 ft 436 kts 278°
2026-05-06 13:51 60.96906 -25.38376 34124 ft 436 kts 278°
2026-05-06 13:51 60.97552 -25.50791 34139 ft 436 kts 278°
2026-05-06 13:52 60.98186 -25.63194 34141 ft 435 kts 278°
2026-05-06 13:52 60.98809 -25.75612 34142 ft 437 kts 278°
2026-05-06 13:53 60.99424 -25.88077 34152 ft 438 kts 278°
2026-05-06 13:53 61.00029 -26.00582 34165 ft 439 kts 277°
2026-05-06 13:54 61.00488 -26.13145 34167 ft 440 kts 276°
2026-05-06 13:54 61.00861 -26.25752 34163 ft 441 kts 276°
2026-05-06 13:55 61.01230 -26.38366 34170 ft 441 kts 276°
2026-05-06 13:55 61.01601 -26.50974 34179 ft 440 kts 276°
2026-05-06 13:56 61.01965 -26.63549 34184 ft 439 kts 276°
2026-05-06 13:56 61.02320 -26.76111 34187 ft 438 kts 276°
2026-05-06 13:57 61.02662 -26.88666 34188 ft 438 kts 275°
2026-05-06 13:57 61.02992 -27.01205 34222 ft 438 kts 276°
2026-05-06 13:58 61.03312 -27.13795 34213 ft 440 kts 275°
2026-05-06 13:58 61.03569 -27.24288 34176 ft 441 kts 275°
2026-05-06 13:59 61.03867 -27.36902 34200 ft 440 kts 275°
2026-05-06 13:59 61.04153 -27.49502 34213 ft 439 kts 275°
2026-05-06 14:00 61.04427 -27.62087 34231 ft 439 kts 275°
2026-05-06 14:00 61.04689 -27.74673 34233 ft 439 kts 275°
2026-05-06 14:01 61.04939 -27.87254 34230 ft 439 kts 275°
2026-05-06 14:01 61.05178 -27.99825 34236 ft 439 kts 275°
2026-05-06 14:02 61.05404 -28.12393 34239 ft 437 kts 275°
2026-05-06 14:02 61.05618 -28.24905 34246 ft 436 kts 275°
2026-05-06 14:03 61.05820 -28.37391 34256 ft 435 kts 275°
2026-05-06 14:03 61.06012 -28.49900 34257 ft 437 kts 275°
2026-05-06 14:04 61.06192 -28.62463 34263 ft 438 kts 274°
2026-05-06 14:04 61.06360 -28.74976 34262 ft 440 kts 274°
2026-05-06 14:05 61.06517 -28.87605 34229 ft 440 kts 274°
2026-05-06 14:05 61.06662 -29.00206 34255 ft 438 kts 274°
2026-05-06 14:06 61.06795 -29.12782 34265 ft 438 kts 274°
2026-05-06 14:06 61.06916 -29.25334 34275 ft 437 kts 274°
2026-05-06 14:07 61.07026 -29.37877 34274 ft 437 kts 274°
2026-05-06 14:07 61.07124 -29.50419 34280 ft 437 kts 274°
2026-05-06 14:08 61.07211 -29.62949 34280 ft 436 kts 274°
2026-05-06 14:08 61.07286 -29.75491 34287 ft 437 kts 274°
2026-05-06 14:09 61.07350 -29.88072 34303 ft 439 kts 274°
2026-05-06 14:09 61.07402 -30.00717 34300 ft 441 kts 274°
2026-05-06 14:10 61.07442 -30.13407 34298 ft 442 kts 274°
2026-05-06 14:10 61.07470 -30.26126 34304 ft 443 kts 273°
2026-05-06 14:11 61.07487 -30.38860 34304 ft 444 kts 273°
2026-05-06 14:11 61.07491 -30.51591 34300 ft 442 kts 273°
2026-05-06 14:12 61.07483 -30.64257 34304 ft 440 kts 273°
2026-05-06 14:12 61.07463 -30.76900 34312 ft 440 kts 273°
2026-05-06 14:13 61.07433 -30.89511 34317 ft 439 kts 273°
2026-05-06 14:13 61.07390 -31.02117 34318 ft 439 kts 273°
2026-05-06 14:14 61.07336 -31.14627 34319 ft 438 kts 272°
2026-05-06 14:14 61.07270 -31.27218 34283 ft 438 kts 272°
2026-05-06 14:15 61.07192 -31.39767 34319 ft 437 kts 272°
2026-05-06 14:15 61.07104 -31.52287 34333 ft 436 kts 272°
2026-05-06 14:16 61.07004 -31.64793 34335 ft 436 kts 272°
2026-05-06 14:16 61.06892 -31.77306 34333 ft 436 kts 272°
2026-05-06 14:17 61.06768 -31.89813 34333 ft 436 kts 272°
2026-05-06 14:17 61.06633 -32.02322 34332 ft 436 kts 272°
2026-05-06 14:18 61.06487 -32.14814 34332 ft 435 kts 272°
2026-05-06 14:18 61.06329 -32.27296 34335 ft 435 kts 272°
2026-05-06 14:19 61.06160 -32.39767 34348 ft 435 kts 272°
2026-05-06 14:19 61.05979 -32.52265 34346 ft 436 kts 272°
2026-05-06 14:20 61.05786 -32.64801 34355 ft 437 kts 272°
2026-05-06 14:20 61.05581 -32.77362 34353 ft 438 kts 271°
2026-05-06 14:21 61.05363 -32.89949 34329 ft 438 kts 271°
2026-05-06 14:21 61.05134 -33.02516 34356 ft 438 kts 271°
2026-05-06 14:22 61.04893 -33.15087 34364 ft 438 kts 271°
2026-05-06 14:22 61.04641 -33.27666 34364 ft 439 kts 271°
2026-05-06 14:23 61.04376 -33.40240 34365 ft 439 kts 271°
2026-05-06 14:23 61.04102 -33.52729 34371 ft 439 kts 271°
2026-05-06 14:24 61.03813 -33.65386 34334 ft 439 kts 271°
2026-05-06 14:24 61.03516 -33.77850 34366 ft 438 kts 271°
2026-05-06 14:25 61.03206 -33.90403 34376 ft 439 kts 271°
2026-05-06 14:25 61.02883 -34.03000 34383 ft 441 kts 271°
2026-05-06 14:26 61.02547 -34.15641 34391 ft 442 kts 271°
2026-05-06 14:26 61.02198 -34.28298 34390 ft 443 kts 270°
2026-05-06 14:27 61.01837 -34.40972 34389 ft 443 kts 270°
2026-05-06 14:27 61.01464 -34.53643 34384 ft 442 kts 270°
2026-05-06 14:28 61.01080 -34.66292 34397 ft 442 kts 270°
2026-05-06 14:28 61.00684 -34.78951 34403 ft 442 kts 270°
2026-05-06 14:29 61.00278 -34.91599 34401 ft 442 kts 270°
2026-05-06 14:29 61.00050 -35.04230 34400 ft 439 kts 277°
2026-05-06 14:30 61.00498 -35.16745 34402 ft 438 kts 278°
2026-05-06 14:30 61.01007 -35.29275 34371 ft 439 kts 278°
2026-05-06 14:31 61.01475 -35.41830 34406 ft 440 kts 278°
2026-05-06 14:31 61.01907 -35.54427 34417 ft 441 kts 278°
2026-05-06 14:32 61.02318 -35.67059 34418 ft 442 kts 277°
2026-05-06 14:32 61.02717 -35.79716 34423 ft 442 kts 277°
2026-05-06 14:33 61.03104 -35.92382 34426 ft 443 kts 277°
2026-05-06 14:33 61.03480 -36.05051 34430 ft 442 kts 277°
2026-05-06 14:34 61.03845 -36.17719 34384 ft 442 kts 277°
2026-05-06 14:34 61.04198 -36.30399 34429 ft 443 kts 278°
2026-05-06 14:35 61.04541 -36.43132 34443 ft 445 kts 277°
2026-05-06 14:35 61.04871 -36.55828 34443 ft 447 kts 277°
2026-05-06 14:36 61.05191 -36.68654 34443 ft 448 kts 277°
2026-05-06 14:36 61.05500 -36.81511 34442 ft 448 kts 277°
2026-05-06 14:37 61.05797 -36.94362 34445 ft 449 kts 277°
2026-05-06 14:37 61.06081 -37.07231 34444 ft 448 kts 277°
2026-05-06 14:38 61.06353 -37.20096 34445 ft 448 kts 277°
2026-05-06 14:38 61.06614 -37.32966 34449 ft 449 kts 278°
2026-05-06 14:39 61.06863 -37.45888 34458 ft 451 kts 277°
2026-05-06 14:39 61.07101 -37.58851 34458 ft 452 kts 277°
2026-05-06 14:40 61.07326 -37.71851 34460 ft 453 kts 277°
2026-05-06 14:40 61.07539 -37.84874 34458 ft 454 kts 277°
2026-05-06 14:41 61.07740 -37.97910 34458 ft 454 kts 277°
2026-05-06 14:41 61.07928 -38.10941 34458 ft 454 kts 277°
2026-05-06 14:42 61.08104 -38.23962 34464 ft 453 kts 277°
2026-05-06 14:42 61.08267 -38.36991 34446 ft 454 kts 277°
2026-05-06 14:43 61.08418 -38.50021 34461 ft 454 kts 277°
2026-05-06 14:43 61.08557 -38.63093 34471 ft 455 kts 277°
2026-05-06 14:44 61.08682 -38.76098 34472 ft 456 kts 277°
2026-05-06 14:45 61.08848 -38.95857 34457 ft 457 kts 277°
2026-05-06 14:45 61.08943 -39.09004 34468 ft 458 kts 277°
2026-05-06 14:46 61.09025 -39.22109 34475 ft 460 kts 277°
2026-05-06 14:46 61.09095 -39.35338 34472 ft 460 kts 277°
2026-05-06 14:47 61.09143 -39.46425 34469 ft 461 kts 277°
2026-05-06 14:47 61.09189 -39.59676 34483 ft 461 kts 277°
2026-05-06 14:48 61.09222 -39.72952 34477 ft 462 kts 277°
2026-05-06 14:48 61.09242 -39.86237 34473 ft 463 kts 277°
2026-05-06 14:49 61.09250 -39.99475 34477 ft 465 kts 277°
2026-05-06 14:49 61.09244 -40.12841 34484 ft 466 kts 276°
2026-05-06 14:50 61.09224 -40.26234 34480 ft 467 kts 276°
2026-05-06 14:50 61.09191 -40.39661 34485 ft 467 kts 276°
2026-05-06 14:51 61.09144 -40.53093 34472 ft 468 kts 276°
2026-05-06 14:51 61.09085 -40.66536 34488 ft 468 kts 276°
2026-05-06 14:52 61.09013 -40.79998 34497 ft 469 kts 276°
2026-05-06 14:52 61.08927 -40.93530 34497 ft 472 kts 276°